Regional Weather Roundup
Issued by NWS

Home | Current Version | Previous Version | Text Only | Print | Product List | Glossary Off
Versions: 1 2 3 4 5 6 7 8 9 10 11 12 13 14 15 16 17 18 19 20 21 22 23 24 25 26 27 28 29 30 31 32 33 34 35 36 37 38 39 40 41 42 43 44 45 46 47 48 49 50

000
ASUS43 KMKX 190711
RWRWI

WISCONSIN REGIONAL WEATHER ROUNDUP
NATIONAL WEATHER SERVICE MILWAUKEE/SULLIVAN WI
200 AM CDT SUN APR 19 2015

NOTE: "FAIR" INDICATES FEW OR NO CLOUDS BELOW 12,000 FEET WITH NO
SIGNIFICANT WEATHER AND/OR OBSTRUCTIONS TO VISIBILITY.

WIZ001-002-006>008-014>016-023>028-190800-
NORTHWEST WISCONSIN

CITY           SKY/WX    TMP DP  RH WIND       PRES   REMARKS
SUPERIOR ARPT  DRIZZLE   37  34  90 NE14      29.97F WCI  28
ASHLAND        CLOUDY    40  36  86 NW5       29.97F
HAYWARD        CLOUDY    52  16  24 SE8       29.95S
SIREN          LGT RAIN  45  37  72 SE9       29.91F
CUMBERLAND     RAIN      43  32  65 SE13G18   29.94F
RICE LAKE      LGT RAIN  46  33  60 SE13      29.97F
CHETEK         LGT RAIN  46  35  64 E9        29.95F
LADYSMITH      LGT RAIN  51  17  25 S3        29.99R
EAU CLAIRE     CLOUDY    48  33  56 SE9       29.95F
MENOMONIE      DRIZZLE   47  35  60 E14       29.92F
NEW RICHMOND   DRIZZLE   46  38  71 E17G24    29.86F
OSCEOLA        DRIZZLE   47  40  77 E20G26    29.87F
$$

WIZ003>005-009-010-017-018-190800-
NORTH CENTRAL WISCONSIN

CITY           SKY/WX    TMP DP  RH WIND       PRES   REMARKS
MANITOWISH WTR CLOUDY    46  25  44 SE8G17    29.98F
ARBOR VITAE    HAZE      47  24  41 SE15G21   29.98F VSB 3/4
WOODRUFF       HAZE      47  24  41 SE15G21   29.98F VSB 3/4
RHINELANDER    MOCLDY    44  24  45 E13       30.00F
EAGLE RIVER    CLOUDY    42  24  49 SE10G18   30.01F
LAND O LAKES   CLOUDY    42  26  52 SE9G16    30.02F
PHILLIPS       CLOUDY    48  17  29 E7        29.96S
TOMAHAWK       PTCLDY    47  22  37 CALM      29.98F
MEDFORD        PTCLDY    46  23  39 E12G17    29.94F
MERRILL        PTCLDY    46  25  43 E9        29.98F
$$

WIZ029-030-035-036-043>047-190800-
CENTRAL WISCONSIN

CITY           SKY/WX    TMP DP  RH WIND       PRES   REMARKS
WAUSAU         PTCLDY    47  24  40 E14       29.97F
MOSINEE        MOCLDY    45  25  45 E10G17    29.98F
MARSHFIELD     MOCLDY    47  25  42 E10       29.95F
STEVENS POINT  MOCLDY    44  26  48 E9        29.98F
WAUPACA        CLEAR     48  26  42 E7        30.00F
WAUTOMA        PTCLDY    45  29  53 NE6       29.98F
WISC RAPIDS    MOCLDY    48  24  39 E10       29.96F
CAMP DOUGLAS   LGT RAIN  50  32  50 E9        29.93F
$$

WIZ011>013-019>022-031-037>040-048>050-190800-
NORTHEAST WISCONSIN

CITY           SKY/WX    TMP DP  RH WIND       PRES   REMARKS
ANTIGO         PTCLDY    41  28  59 E13G22    30.01F
SHAWANO        CLEAR     46  31  57 E9        30.03F
OCONTO         CLEAR     42  32  68 E3        30.04F
STURGEON BAY   CLEAR     45  25  45 SE9       30.08F
GREEN BAY      CLEAR     45  29  53 E7        30.02F
MANITOWOC      PTCLDY    41  29  62 E7        30.04F
APPLETON       PTCLDY    46  21  36 E12G17    30.00F
CLINTONVILLE   CLEAR     43  30  61 E6        30.02F
OSHKOSH        PTCLDY    50  24  36 E12       29.99F
$$

WIZ032>034-041-042-053>061-190800-
SOUTHWEST WISCONSIN

CITY           SKY/WX    TMP DP  RH WIND       PRES   REMARKS
LA CROSSE      CLOUDY    57  29  34 E12       29.89F
SPARTA         CLOUDY    46  39  76 CALM      29.95F
VIROQUA        CLOUDY    49  32  52 E7        29.91F
BOSCOBEL       MOCLDY    54  32  43 E3        29.90F
PRAIRIE DU CHI MOCLDY    57  32  38 E7        29.87F
PLATTEVILLE    MOCLDY    53  34  47 E13       29.88F
$$

WIZ056-057-062-063-064-067-068-190800-
SOUTH CENTRAL WISCONSIN

CITY           SKY/WX    TMP DP  RH WIND       PRES   REMARKS
REEDSBURG      CLOUDY    48  30  49 CALM      29.93F
BARABOO/DELLS  CLOUDY    48  28  44 E9        29.93F
LONE ROCK      CLOUDY    53  30  41 E13       29.91F
MINERAL POINT  CLOUDY    54  30  40 E10       29.89F
MADISON        MOCLDY    50  30  46 SE9       29.93F
MIDDLETON      MOCLDY    51  30  44 E6        29.93F
WATERTOWN      MOCLDY    50  30  46 E15       29.94F
MONROE         CLOUDY    50  34  53 E8        29.91F
JANESVILLE     CLOUDY    52  32  46 E9        29.92F
$$

WIZ051-052-058>065-066-070>072-190800-
SOUTHEAST WISCONSIN

CITY           SKY/WX    TMP DP  RH WIND       PRES   REMARKS
MILWAUKEE      MOCLDY    47  31  53 SE13      29.99F
WAUKESHA       MOCLDY    46  30  53 E9        29.99F
MILWAUKEE/TIMM MOCLDY    46  27  46 E8        30.01S
RACINE         CLOUDY    47  32  56 E13       30.00F
BURLINGTON     CLOUDY    48  31  51 E9        29.96F
KENOSHA        CLOUDY    49  33  54 E10       29.97F
FOND DU LAC    MOCLDY    51  23  33 SE20G29   29.97F
SHEBOYGAN      PTCLDY    44  26  49 E6        30.03S
WEST BEND      MOCLDY    46  27  46 E10G16    30.00F
JUNEAU         MOCLDY    50  28  42 E15G22    29.97F
$$

LSZ147-162-190800-
LAKE SUPERIOR

STATION/POSITION TIME  TEMP    WIND        PRES    WAVE
                       AIR SEA DIR/SP/G            HT/PER
                 (UTC) (F)     (DEG/KT/KT) (MB)    (FT/S)
DEVILS ISLAND    0700   38      70/ 13/ 14 1016.1F
PORT WING        0640   38      50/ 10/ 14 1015.9S
SAXON HARBOR     0600   40        CALM     1014.9
$$

LMZ867-665-643>646-190800-
LAKE MICHIGAN

STATION/POSITION TIME  TEMP    WIND        PRES    WAVE
                       AIR SEA DIR/SP/G            HT/PER
                 (UTC) (F)     (DEG/KT/KT) (MB)    (FT/S)
CHAMBERS ISLAND  0600   45      90/  5/  8 1019.3S
NORTHPORT PIER   0700   40     100/ 10/ 15 1018.6F
SISTER BAY       0647   42     130/  9/ 14   N/A
KEWAUNEE LAKESHO 0612   42                   N/A
SHEBOYGAN LAKESH 0700   44     120/  5/  6 1017.4F
PORT WASHINGTON  0640   45      70/  4/  6 1017.3F
MILWAUKEE LAKESH 0600   45      60/  4/  6   N/A
KENOSHA   LAKESH 0700   45     100/  4/  6 1015.2F
$$

TC  - TEMPERATURE IN CELSIUS
VSB - VISIBILITY IN STATUTE MILES
WCI - WIND CHILL INDEX
HX  - HEAT INDEX



USA.gov is the U.S. government's official web portal to all federal, state and local government web resources and services.